Location: ????????
(55.5667°N, 37.5833°E)
Time: 11:26:20
(UTC+00:00)

Cosmos 1680 Rocket - Pass Details

Date: 14 April 2026
Orbit: 756 x 776 km, 74.1° (Epoch: 9 May)

Event Time Altitude Azimuth Distance (km) Brightness Sun altitude
Rises 17:17:45 0° 330° (NNW) 3,237 7.8 -6.6°
Reaches altitude 10° 17:20:10 10° 327° (NNW) 2,305 7.1 -6.9°
Maximum altitude 17:25:17 60° 249° (WSW) 872 4.1 -7.6°
Drops below altitude 10° 17:30:22 10° 171° (S) 2,281 5.6 -8.2°
Sets 17:32:44 0° 167° (SSE) 3,201 6.3 -8.5°
